Regional Weather Roundup
Issued by NWS

Home | Current Version | Previous Version | Text Only | Print | Product List | Glossary Off
Versions: 1 2 3 4 5 6 7 8 9 10 11 12 13 14 15 16 17 18 19 20 21 22 23 24 25 26 27 28 29 30 31 32 33 34 35 36 37 38 39 40 41 42 43 44 45 46 47 48 49

000
ASUS45 KBOU 220107
RWRCO

WEATHER ROUNDUP FOR COLORADO
NATIONAL WEATHER SERVICE DENVER/BOULDER CO
600 PM MST SUN DEC 21 2014

NOTE: "FAIR" INDICATES FEW OR NO CLOUDS BELOW 12000 FEET WITH NO
SIGNIFICANT WEATHER AND/OR OBSTRUCTIONS TO VISIBILITY.

COZ001>005-013-030-031-220200-
...NORTHWEST COLORADO...

CITY           SKY/WX    TMP DP  RH WIND       PRES   REMARKS
CRAIG          CLOUDY    38  31  76 SW25      29.73S
HAYDEN         CLOUDY    37  28  70 W17       29.72S
MEEKER         CLOUDY    35  31  85 CALM      29.83R
MOUNT WERNER   NOT AVBL
STEAMBOAT SPGS CLOUDY    34  31  88 W18G28    29.71S WCI  23
WALDEN         CLOUDY    32  28  86 W14       29.65S WCI  22
$$

COZ006>008-011-220200-
...WEST CENTRAL VALLEYS...

CITY           SKY/WX    TMP DP  RH WIND       PRES   REMARKS
GRAND JUNCTION CLOUDY    34  32  92 CALM      29.92F
MONTROSE       CLOUDY    33  31  92 N3        29.93S
EAGLE          CLOUDY    34  28  80 NE6       29.81F WCI  29
RIFLE          CLOUDY    36  30  79 W14       29.85S
DELTA          CLOUDY    34  32  93 CALM      29.92F
NUCLA          CLOUDY    36  32  87 SW3       30.00S
$$

COZ017>023-064>068-220200-
...SOUTHWEST COLORADO...

CITY           SKY/WX    TMP DP  RH WIND       PRES   REMARKS
DURANGO        MOCLDY    33  28  81 CALM      29.93S
CORTEZ         CLOUDY    37  30  75 NE6       29.98F
PAGOSA SPRINGS LGT SNOW  31  29  95 CALM      29.95S
TELLURIDE      CLOUDY    32  31  96 W15G22    29.99S WCI  22
WOLF CREEK PAS SNOW      18  18 100 MISG      29.92F VSB 1/2
$$

COZ009-010-012-014-032>034-037-058>063-220200-
...CENTRAL COLORADO...

CITY           SKY/WX    TMP DP  RH WIND       PRES   REMARKS
ASPEN          LGT SNOW  26  25  96 NW5       29.80F VSB 3/4 WCI  20
BUENA VISTA    CLOUDY    35  26  69 W13       29.71F WCI  26
COPPER MTN     CLOUDY    25  19  80 MISG      29.69F
BERTHOUD PASS  HVY SNOW  18  12  79 MISG      29.46F VSB<1/4
COTTONWOOD PAS CLOUDY    32  27  80 W18G35    29.71F WCI  20
GUNNISON       CLOUDY    34  28  80 W15       29.84F WCI  24
KREMMLING      FLURRIES  32  28  86 W17G26    29.70S WCI  21
LEADVILLE      LGT SNOW  24  22  91 NW17G25   29.73F VSB 3/4 WCI  11
SALIDA         CLOUDY    41  26  55 SW15G21   29.79F
SUNLIGHT       MIX PCPN N/A N/A N/A SW7       29.81F VSB 3/4
WILKERSON PASS SNOW      23  21  93 W13G20    29.73S VSB 1/2 WCI  11
$$

COZ069>075-220200-
...SAN LUIS VALLEY/SANGRE DE CRISTO MOUNTAINS...

CITY           SKY/WX    TMP DP  RH WIND       PRES   REMARKS
ALAMOSA        CLOUDY    34  25  69 E7        29.80F WCI  28
LA VETA PASS   CLOUDY    27  23  86 S21G35    29.77R WCI  13
SAGUACHE       LGT SNOW  30  30 100 E6        29.81F WCI  24
$$

COZ035-036-038>040-220200-
...NORTHERN COLORADO FRONT RANGE...

CITY           SKY/WX    TMP DP  RH WIND       PRES   REMARKS
DENVER INTL AP CLOUDY    44  26  49 W12       29.56R
DMNS CITY PARK   N/A     45  26  47 W6        29.57S
AURORA         MOCLDY    44  26  48 W17       29.58S
FRONT RANGE AP CLOUDY    45  30  57 W13       29.57R
ERIE MUNI ARPT   N/A     46  26  45 W8        29.56R
BOULDER MUN AP MOCLDY    46  28  49 NW8       29.56R
CENTENNIAL     MOCLDY    45  25  45 CALM      29.59R
BROOMFIELD     MOCLDY    45  27  49 CALM      29.58R
FORT COLLINS   CLOUDY    45  27  49 N7        29.55S
LONGMONT       CLOUDY    46  28  50 CALM      29.57R
$$

COZ041-046-047-076>085-087-088-220200-
...PIKES PEAK/PALMER DIVIDE AND SOUTHERN FOOTHILLS...

CITY           SKY/WX    TMP DP  RH WIND       PRES   REMARKS
COLO. SPRINGS  MOCLDY    46  24  42 NW20G30   29.60R
A. F. ACADEMY  MOCLDY    41  24  51 NW5       29.62R
ELLICOTT       NOT AVBL
FALCON         MOCLDY    38  24  56 NW10      29.62S
FORT CARSON    MOCLDY    42  23  46 S6        29.59R
LIMON          CLOUDY    44  27  51 N12       29.59R
MONUMENT HILL  MOCLDY    37  25  60 W14       29.61S
TRINIDAD       CLOUDY    50  24  36 NW17      29.60F
$$

COZ042>045-048>051-090-091-220200-
...NORTHEAST COLORADO...

CITY           SKY/WX    TMP DP  RH WIND       PRES   REMARKS
GREELEY ARPT   CLOUDY    45  28  53 N10       29.53S
AKRON          CLOUDY    42  30  62 W15G25    29.53S
BURLINGTON     CLOUDY    43  32  65 NW9       29.55S
WRAY           CLOUDY    38  33  83 W3        29.52S
STERLING       CLOUDY    37  34  87 CALM      29.51S
HOLYOKE        CLOUDY    37  32  81 W7        29.51S
FORT MORGAN    CLOUDY    41  32  69 NW28      29.55S
$$

COZ086-089-092>099-220200-
...SOUTHEAST COLORADO...

CITY           SKY/WX    TMP DP  RH WIND       PRES   REMARKS
PUEBLO         CLOUDY    52  24  33 NW23      29.58R
LA JUNTA       CLOUDY    38  30  73 S3        29.56R
LAMAR          CLOUDY    37  29  72 SW6       29.54R
SPRINGFIELD      N/A     42  26  53 W9        29.56S
$$


USA.gov is the U.S. government's official web portal to all federal, state and local government web resources and services.